Weather History for KUES - December, 2013

Change the Weather History Date:

Sunday, December 15, 2013

  Actual Average Record
Temperature  
Mean Temperature 10 °F -  
Max Temperature 19 °F 35 °F 54 °F (1971)
Min Temperature 1 °F 20 °F -8 °F (1958)
Degree Days  
Heating Degree Days 55    
Moisture  
Dew Point 2 °F    
Average Humidity 72    
Maximum Humidity 93    
Minimum Humidity 56    
Precipitation  
Precipitation 0.00 in - - ()
Sea Level Pressure  
Sea Level Pressure 29.98 in    
Wind  
Wind Speed 11 mph (WNW)    
Max Wind Speed 18 mph    
Max Gust Speed 26 mph    
Visibility 9 miles    
Events Snow    
Averages and records for this station are not official NWS values.
T = Trace of Precipitation, MM = Missing Value Source: NWS Daily Summary

Daily Weather History Graph

Daily Weather History Graph

Search for Another Location

Airport or City:

Trip Planner

Search our weather history database for the weather conditions in past years. The results will help you decide how hot, cold, wet, or windy it might be!

Date:

Astronomy

Dec. 15, 2013 Rise Set
Actual Time 7:17 AM CST 4:18 PM CST
Civil Twilight 6:45 AM CST 4:51 PM CST
Nautical Twilight 6:09 AM CST 5:27 PM CST
Astronomical Twilight 5:34 AM CST 6:01 PM CST
Moon 3:24 PM CST (12/15) 5:31 AM CST (12/15)
Length of Visible Light 10h 06m
Length of Day
9h 01m
Waxing Gibbous, 98% of the Moon is Illuminated
Dec 15
Waxing Gibbous
Dec 17
Full
Dec 25
Last Quarter
Jan 1
New
Jan 7
First Quarter

Hourly Weather History & Observations

Time (CST) Temp. Windchill Dew Point Humidity Pressure Visibility Wind Dir Wind Speed Gust Speed Precip Events Conditions
12:15 AM 19.4 °F 10.4 °F 17.6 °F 93% 29.90 in 7.0 mi WSW 6.9 mph - N/A Snow Light Snow
12:35 AM 19.4 °F 11.5 °F 17.6 °F 93% 29.89 in 7.0 mi WSW 5.8 mph - N/A Snow Light Snow
12:55 AM 19.4 °F 9.5 °F 17.6 °F 93% 29.89 in 7.0 mi WSW 8.1 mph - N/A Snow Light Snow
1:15 AM 19.4 °F 8.6 °F 17.6 °F 93% 29.88 in 7.0 mi West 9.2 mph - N/A Snow Light Snow
1:35 AM 19.4 °F 8.6 °F 17.6 °F 93% 29.88 in 5.0 mi WSW 9.2 mph - N/A Snow Light Snow
1:55 AM 19.4 °F 7.2 °F 17.6 °F 93% 29.88 in 5.0 mi West 11.5 mph - N/A Snow Light Snow
2:15 AM 19.4 °F 4.5 °F 17.6 °F 93% 29.88 in 5.0 mi West 17.3 mph 20.7 mph N/A Snow Light Snow
2:35 AM 19.4 °F 5.5 °F 15.8 °F 86% 29.88 in 4.0 mi West 15.0 mph 21.9 mph N/A Snow Light Snow
2:55 AM 17.6 °F 4.3 °F 12.2 °F 79% 29.89 in 3.0 mi WNW 12.7 mph 26.5 mph N/A Snow Light Snow
3:15 AM 15.8 °F 1.4 °F 12.2 °F 86% 29.90 in 5.0 mi WNW 13.8 mph 23.0 mph N/A Snow Light Snow
3:35 AM 14.0 °F -2.0 °F 10.4 °F 86% 29.89 in 7.0 mi WNW 16.1 mph 23.0 mph N/A Snow Light Snow
3:55 AM 14.0 °F -2.0 °F 10.4 °F 86% 29.90 in 7.0 mi WNW 16.1 mph 19.6 mph N/A Snow Light Snow
4:15 AM 14.0 °F -2.5 °F 8.6 °F 79% 29.90 in 7.0 mi WNW 17.3 mph 24.2 mph N/A Snow Light Snow
4:35 AM 14.0 °F -0.8 °F 8.6 °F 79% 29.90 in 10.0 mi WNW 13.8 mph 25.3 mph N/A   Overcast
5:45 AM 10.4 °F -7.7 °F 5.0 °F 79% 29.92 in 10.0 mi WNW 18.4 mph 25.3 mph N/A   Overcast
6:45 AM 10.4 °F -5.4 °F 3.2 °F 73% 29.94 in 10.0 mi WNW 13.8 mph - N/A   Mostly Cloudy
7:45 AM 8.6 °F -7.7 °F 1.4 °F 73% 29.95 in 10.0 mi WNW 13.8 mph - N/A   Mostly Cloudy
8:45 AM 8.6 °F -7.7 °F 1.4 °F 73% 29.96 in 10.0 mi WNW 13.8 mph 20.7 mph N/A   Mostly Cloudy
9:45 AM 8.6 °F -7.7 °F 1.4 °F 73% 29.98 in 10.0 mi WNW 13.8 mph 20.7 mph N/A   Overcast
10:45 AM 10.4 °F -4.1 °F -0.4 °F 62% 29.98 in 10.0 mi WNW 11.5 mph 20.7 mph N/A   Overcast
11:45 AM 10.4 °F -7.7 °F -0.4 °F 62% 29.97 in 10.0 mi West 18.4 mph 24.2 mph N/A   Mostly Cloudy
12:45 PM 10.4 °F -7.2 °F -0.4 °F 62% 29.96 in 10.0 mi West 17.3 mph 23.0 mph N/A   Scattered Clouds
1:45 PM 10.4 °F -7.2 °F -0.4 °F 62% 29.96 in 10.0 mi WNW 17.3 mph - N/A   Clear
2:45 PM 10.4 °F -6.6 °F -2.2 °F 57% 29.98 in 10.0 mi West 16.1 mph 23.0 mph N/A   Clear
3:45 PM 8.6 °F - -0.4 °F 67% 30.00 in 10.0 mi North - - N/A   Clear
4:45 PM 8.6 °F - -2.2 °F 62% 30.00 in 10.0 mi North - - N/A   Clear
5:45 PM 5.0 °F - -4.0 °F 66% 30.02 in 10.0 mi North - - N/A   Clear
6:45 PM 5.0 °F - -5.8 °F 61% 30.04 in 10.0 mi North - - N/A   Clear
7:45 PM 5.0 °F -10.8 °F -7.6 °F 56% 30.06 in 10.0 mi WNW 11.5 mph - N/A   Clear
8:15 PM 5.0 °F -8.1 °F -5.8 °F 61% 30.06 in 10.0 mi WNW 8.1 mph - N/A   Clear
8:35 PM 5.0 °F -8.1 °F -5.8 °F 61% 30.07 in 10.0 mi WNW 8.1 mph - N/A   Clear
8:45 PM 3.2 °F -9.1 °F -7.6 °F 61% 30.07 in 10.0 mi WNW 6.9 mph - N/A   Clear
8:55 PM 3.2 °F -10.3 °F -7.6 °F 61% 30.07 in 10.0 mi WNW 8.1 mph - N/A   Clear
9:15 PM 3.2 °F -12.2 °F -7.6 °F 61% 30.07 in 10.0 mi WNW 10.4 mph - N/A   Clear
9:35 PM 3.2 °F -10.3 °F -7.6 °F 61% 30.07 in 10.0 mi NW 8.1 mph - N/A   Clear
9:55 PM 3.2 °F -13.1 °F -7.6 °F 61% 30.07 in 10.0 mi NW 11.5 mph - N/A   Clear
10:15 PM 3.2 °F -13.1 °F -7.6 °F 61% 30.07 in 10.0 mi NW 11.5 mph - N/A   Clear
10:35 PM 1.4 °F -16.1 °F -7.6 °F 66% 30.08 in 10.0 mi NW 12.7 mph - N/A   Clear
10:55 PM 1.4 °F -16.1 °F -7.6 °F 66% 30.09 in 10.0 mi WNW 12.7 mph - N/A   Clear
11:15 PM 1.4 °F -12.5 °F -7.6 °F 66% 30.09 in 10.0 mi WNW 8.1 mph - N/A   Clear
11:35 PM 1.4 °F -12.5 °F -7.6 °F 66% 30.10 in 10.0 mi WNW 8.1 mph - N/A   Clear
11:55 PM 1.4 °F -13.5 °F -7.6 °F 66% 30.10 in 10.0 mi West 9.2 mph - N/A   Clear